TimeEST,TemperatureF,Dew PointF,Humidity,Sea Level PressureIn,VisibilityMPH,Wind Direction,Wind SpeedMPH,Gust SpeedMPH,PrecipitationIn,Events,Conditions,WindDirDegrees,DateUTC
12:15 AM,38.3,24.1,57,30.14,10.0,WNW,13.8,21.9,N/A,,Clear,300,2013-01-18 05:15:00
12:35 AM,38.3,23.9,56,30.15,10.0,WNW,21.9,27.6,N/A,,Clear,300,2013-01-18 05:35:00
12:55 AM,38.1,23.5,56,30.16,10.0,WNW,18.4,29.9,N/A,,Clear,300,2013-01-18 05:55:00
1:15 AM,37.4,23.5,57,30.17,10.0,WNW,5.8,-,N/A,,Scattered Clouds,300,2013-01-18 06:15:00
1:35 AM,37.6,23.4,57,30.18,10.0,West,16.1,20.7,N/A,,Mostly Cloudy,280,2013-01-18 06:35:00
1:55 AM,36.5,22.3,56,30.18,10.0,West,15.0,-,N/A,,Mostly Cloudy,280,2013-01-18 06:55:00
2:15 AM,36.9,20.8,52,30.18,10.0,West,24.2,28.8,N/A,,Scattered Clouds,280,2013-01-18 07:15:00
2:35 AM,36.1,21.2,55,30.19,10.0,WNW,16.1,20.7,N/A,,Scattered Clouds,290,2013-01-18 07:35:00
2:55 AM,36.3,20.7,53,30.20,10.0,WNW,24.2,34.5,N/A,,Scattered Clouds,290,2013-01-18 07:55:00
3:15 AM,36.5,20.7,53,30.21,10.0,West,24.2,32.2,N/A,,Mostly Cloudy,280,2013-01-18 08:15:00
3:35 AM,36.7,20.3,52,30.22,10.0,WNW,13.8,31.1,N/A,,Overcast,290,2013-01-18 08:35:00
3:55 AM,36.5,20.7,53,30.22,10.0,WNW,13.8,25.3,N/A,,Mostly Cloudy,290,2013-01-18 08:55:00
4:15 AM,35.6,19.9,53,30.23,10.0,West,19.6,25.3,N/A,,Scattered Clouds,270,2013-01-18 09:15:00
4:35 AM,35.4,19.8,53,30.23,10.0,NW,19.6,28.8,N/A,,Scattered Clouds,310,2013-01-18 09:35:00
4:55 AM,34.9,17.8,50,30.25,10.0,WNW,27.6,32.2,N/A,,Clear,300,2013-01-18 09:55:00
5:15 AM,34.9,18.0,50,30.26,10.0,NW,16.1,28.8,N/A,,Clear,310,2013-01-18 10:15:00
5:35 AM,34.3,17.1,49,30.27,10.0,NW,17.3,29.9,N/A,,Clear,320,2013-01-18 10:35:00
5:55 AM,33.8,15.6,47,30.29,10.0,NW,20.7,28.8,N/A,,Clear,310,2013-01-18 10:55:00
6:15 AM,33.3,14.2,46,30.30,10.0,NW,17.3,29.9,N/A,,Clear,320,2013-01-18 11:15:00
6:35 AM,32.7,14.9,48,30.32,10.0,NW,12.7,23.0,N/A,,Clear,320,2013-01-18 11:35:00
6:55 AM,32.0,15.6,51,30.34,10.0,Calm,Calm,-,N/A,,Clear,0,2013-01-18 11:55:00
7:15 AM,31.3,16.0,53,30.36,10.0,Calm,Calm,-,N/A,,Clear,0,2013-01-18 12:15:00
7:35 AM,30.6,14.2,51,30.37,10.0,Calm,Calm,-,N/A,,Clear,0,2013-01-18 12:35:00
7:55 AM,30.4,13.6,50,30.38,10.0,Calm,Calm,-,N/A,,Clear,0,2013-01-18 12:55:00
8:15 AM,30.0,13.8,51,30.40,10.0,Calm,Calm,-,N/A,,Clear,0,2013-01-18 13:15:00
8:35 AM,29.7,12.4,49,30.41,10.0,NW,10.4,-,N/A,,Clear,310,2013-01-18 13:35:00
8:55 AM,29.8,12.4,48,30.43,10.0,NW,10.4,-,N/A,,Clear,310,2013-01-18 13:55:00
9:15 AM,30.2,11.8,47,30.44,10.0,Calm,Calm,-,N/A,,Clear,0,2013-01-18 14:15:00
9:35 AM,30.4,11.1,45,30.45,10.0,Calm,Calm,-,N/A,,Clear,0,2013-01-18 14:35:00
9:55 AM,31.1,11.5,44,30.46,10.0,Calm,Calm,-,N/A,,Clear,0,2013-01-18 14:55:00
10:15 AM,32.4,12.2,43,30.48,10.0,Calm,Calm,-,N/A,,Clear,0,2013-01-18 15:15:00
10:35 AM,33.3,11.1,40,30.47,10.0,Calm,Calm,-,N/A,,Clear,0,2013-01-18 15:35:00
10:55 AM,34.2,11.5,39,30.47,10.0,Calm,Calm,-,N/A,,Clear,0,2013-01-18 15:55:00
11:15 AM,36.0,12.7,38,30.47,10.0,Calm,Calm,-,N/A,,Clear,0,2013-01-18 16:15:00
11:35 AM,36.0,10.0,34,30.46,10.0,Calm,Calm,-,N/A,,Clear,0,2013-01-18 16:35:00
11:55 AM,36.3,10.6,35,30.45,10.0,Calm,Calm,-,N/A,,Clear,0,2013-01-18 16:55:00
12:15 PM,36.9,9.3,32,30.44,10.0,Calm,Calm,-,N/A,,Clear,0,2013-01-18 17:15:00
12:35 PM,37.4,9.0,31,30.44,10.0,Calm,Calm,-,N/A,,Clear,0,2013-01-18 17:35:00
12:55 PM,38.7,10.6,32,30.43,10.0,Calm,Calm,-,N/A,,Clear,0,2013-01-18 17:55:00
1:15 PM,38.7,9.5,30,30.43,10.0,Calm,Calm,-,N/A,,Clear,0,2013-01-18 18:15:00
1:35 PM,39.4,9.7,29,30.43,10.0,Calm,Calm,-,N/A,,Clear,0,2013-01-18 18:35:00
1:55 PM,39.4,9.7,29,30.42,10.0,Calm,Calm,-,N/A,,Clear,0,2013-01-18 18:55:00
2:15 PM,41.0,10.4,29,30.43,10.0,Calm,Calm,-,N/A,,Clear,0,2013-01-18 19:15:00
2:35 PM,40.8,10.6,29,30.43,10.0,Calm,Calm,-,N/A,,Clear,0,2013-01-18 19:35:00
2:55 PM,41.2,10.2,28,30.43,10.0,Calm,Calm,-,N/A,,Clear,0,2013-01-18 19:55:00
3:15 PM,41.5,9.7,27,30.43,10.0,Calm,Calm,-,N/A,,Clear,0,2013-01-18 20:15:00
3:35 PM,41.9,8.8,26,30.43,10.0,Calm,Calm,-,N/A,,Clear,0,2013-01-18 20:35:00
3:55 PM,42.3,8.8,25,30.42,10.0,Calm,Calm,-,N/A,,Clear,0,2013-01-18 20:55:00
4:15 PM,42.6,7.7,24,30.42,10.0,Calm,Calm,-,N/A,,Clear,0,2013-01-18 21:15:00
4:35 PM,42.8,8.1,24,30.42,10.0,Calm,Calm,-,N/A,,Clear,0,2013-01-18 21:35:00
4:55 PM,41.9,10.0,27,30.42,10.0,Calm,Calm,-,N/A,,Clear,0,2013-01-18 21:55:00
5:15 PM,38.8,14.9,38,30.42,10.0,Calm,Calm,-,N/A,,Clear,0,2013-01-18 22:15:00
5:35 PM,34.9,20.1,55,30.42,10.0,Calm,Calm,-,N/A,,Clear,0,2013-01-18 22:35:00
5:55 PM,34.5,18.7,52,30.42,10.0,Calm,Calm,-,N/A,,Clear,0,2013-01-18 22:55:00
6:15 PM,33.3,20.5,59,30.41,7.0,Calm,Calm,-,N/A,,Clear,0,2013-01-18 23:15:00
6:35 PM,32.2,21.0,63,30.41,7.0,Calm,Calm,-,N/A,,Clear,0,2013-01-18 23:35:00
6:55 PM,31.8,21.6,66,30.41,10.0,Calm,Calm,-,N/A,,Clear,0,2013-01-18 23:55:00
7:15 PM,31.8,21.2,65,30.41,7.0,Calm,Calm,-,N/A,,Clear,0,2013-01-19 00:15:00
7:35 PM,30.7,21.2,68,30.41,7.0,Calm,Calm,-,N/A,,Clear,0,2013-01-19 00:35:00
7:55 PM,30.9,20.7,66,30.41,10.0,Calm,Calm,-,N/A,,Clear,0,2013-01-19 00:55:00
8:15 PM,30.7,21.0,67,30.40,10.0,Calm,Calm,-,N/A,,Clear,0,2013-01-19 01:15:00
8:35 PM,29.3,20.8,71,30.41,10.0,Calm,Calm,-,N/A,,Clear,0,2013-01-19 01:35:00
8:55 PM,28.2,20.5,73,30.41,10.0,Calm,Calm,-,N/A,,Clear,0,2013-01-19 01:55:00
9:15 PM,28.4,20.3,72,30.40,10.0,Calm,Calm,-,N/A,,Clear,0,2013-01-19 02:15:00
9:35 PM,28.9,20.8,72,30.39,10.0,Calm,Calm,-,N/A,,Clear,0,2013-01-19 02:35:00
9:55 PM,27.5,20.8,76,30.38,10.0,Calm,Calm,-,N/A,,Clear,0,2013-01-19 02:55:00
10:15 PM,29.3,21.4,72,30.37,10.0,Calm,Calm,-,N/A,,Clear,0,2013-01-19 03:15:00
10:35 PM,29.5,20.7,70,30.37,10.0,Calm,Calm,-,N/A,,Clear,0,2013-01-19 03:35:00
10:55 PM,35.4,16.7,47,30.36,10.0,South,6.9,-,N/A,,Clear,190,2013-01-19 03:55:00
11:15 PM,36.5,16.2,44,30.35,10.0,South,10.4,-,N/A,,Clear,170,2013-01-19 04:15:00
11:35 PM,36.7,15.8,43,30.34,10.0,Calm,Calm,-,N/A,,Clear,0,2013-01-19 04:35:00
11:55 PM,36.7,16.5,44,30.34,10.0,South,4.6,-,N/A,,Clear,180,2013-01-19 04:55:00